Вернуться в каталог

COSMOS 2595

GLONASS

АктивенНавигацияMEO
NORAD 65590·PAYLOAD·🇷🇺 Russia

Запущен Sep 13, 2025 с Plesetsk Cosmodrome

Loading…

Ближайшие Пролёты (ближайшие 24 часа)

TLE

СвежийSource: CelesTrak SupGP

Эпоха: Sep 12, 2026, 23:59 UTC

1 65590C 25206B   26255.99979167  .00000000  00000+0  00000+0 0  2550
2 65590  64.5780 311.9242 0012323 301.6845 256.9342  2.13100834    11

Отслеживайте COSMOS 2595 в реальном времени с AllMySat

Download on the App Store